Location: Cerro Alto Campground
(35.4250°N, 120.7383°W)
Time: 10:10:16
(UTC-07:00)

Daily predictions for brighter satellites

Satellite Brightness Start Highest point End
(mag) Time Altitude Azimuth Time Altitude Azimuth Time Altitude Azimuth
Cosmos 1269 Rocket 4.4 19:02:41 10° S 19:07:37 41° ESE 19:12:33 10° NNE
Gbstr 26 Del rocket 3.2 19:04:22 10° SSW 19:08:21 55° SE 19:13:08 10° NE
Meteor 1-22 Rocket 4.5 19:04:31 10° SSW 19:09:50 72° W 19:15:07 10° N
Cosmos 2056 Rocket 4.4 19:06:08 10° NNW 19:11:28 58° WSW 19:16:43 10° S
ASTRO E2 4.0 19:08:20 10° WSW 19:12:01 34° SSW 19:15:41 10° SE
Cosmos 1470 4.3 19:09:56 10° SE 19:12:20 16° E 19:14:43 10° NE
Helios 1B rocket 3.7 19:11:01 10° NE 19:14:08 21° E 19:17:15 10° SE
Meteor 1-24 Rocket 3.9 19:09:52 10° NNW 19:15:23 75° W 19:20:43 10° S
Okean 3 Rocket 4.4 19:12:58 10° NNW 19:17:27 60° W 19:21:54 10° S
Cosmos 1544 3.7 19:15:28 10° SSE 19:18:53 34° E 19:22:17 10° NNE
SAR-Lupe-4 3.9 19:15:52 10° SE 19:19:16 43° ENE 19:22:40 10° N
ATLAS 5 CENTAUR R/B 3.3 19:17:28 10° WSW 19:21:53 38° NW 19:26:39 10° NNE
USA 215 3.8 19:16:32 10° ENE 19:22:29 37° SE 19:28:23 10° SSW
ATLAS CENTAUR R/B 3.9 19:24:53 10° WSW 19:29:22 60° NW 19:43:05 10° NE
Resurs 01 Rocket 2.5 19:25:51 10° SE 19:29:42 30° ENE 19:33:35 10° N
SJ-6B 2.9 19:29:19 10° SSE 19:33:15 61° ENE 19:37:18 10° N
Cosmos 1484 Rocket 3.5 19:31:52 10° S 19:35:38 58° W 19:39:31 10° NNW
COSMO-SKYMED 1 3.8 19:31:48 10° N 19:35:56 45° WNW 19:40:04 10° SW
Meteor 2-12 Rocket 4.4 19:30:10 10° S 19:36:17 73° E 19:42:26 10° N
METEOR-M 4.4 19:32:23 10° SE 19:37:29 48° ENE 19:42:37 10° N
ALOS 3.4 19:37:03 14° ESE 19:39:47 22° ENE 19:43:23 10° NNE
Cosmos 1076 Rocket 4.0 19:36:39 10° NNW 19:40:57 64° W 19:45:15 10° S
Milstar 3 4.4 19:32:41 10° W 19:41:39 59° S 19:56:18 15° ESE
Meteor 1-29 3.4 19:43:14 10° NNE 19:46:31 37° E 19:49:45 10° SSE
Cosmos 2151 4.4 19:45:06 10° NNE 19:47:52 19° ENE 19:47:52 19° ENE
Cosmos-2242 3.4 19:44:34 10° SSW 19:48:55 70° W 19:53:18 10° N
ISS -1.2 19:47:25 10° W 19:50:06 24° NNW 19:52:49 10° NNE
Cosmos 1758 4.3 19:47:13 10° SSW 19:51:12 52° W 19:55:13 10° N
ASTEX 1 3.9 19:47:17 10° NNE 19:51:47 36° E 19:56:15 10° SSE
Cosmos 1766 Rocket 4.2 19:48:14 10° NNW 19:52:31 58° W 19:56:45 10° S
GP-B 4.3 19:49:47 10° NNE 19:52:51 22° ENE 19:52:51 22° ENE
Nadezhda 4 Rocket 3.9 19:51:53 10° N 19:58:08 72° E 20:04:17 10° SSE
FENGYUN 3A 4.2 19:55:04 16° SE 19:58:48 37° ENE 20:03:43 10° N
GPS 2-04 Rocket1 2.2 19:57:58 10° W 20:01:25 85° N 20:02:34 40° E
CZ-2D R/B 4.3 20:08:06 28° NE 20:08:06 28° NE 20:10:48 10° N
Cosmos 1092 Rocket 3.9 20:03:06 10° N 20:09:15 63° E 20:15:18 10° SSE
Cosmos 1346 4.4 20:09:09 10° NNW 20:11:58 40° W 20:14:46 10° SSW
Cosmos 494 Rocket 4.4 20:07:42 10° SSE 20:12:26 36° E 20:17:09 10° NE
Cosmos 2251 Rocket 3.6 20:07:27 10° S 20:12:26 48° ESE 20:17:28 10° NNE
H-2A R/B 3.7 20:16:34 32° NE 20:16:34 32° NE 20:19:13 10° N
Cosmos 2142 Rocket 4.5 20:10:13 10° S 20:16:28 61° E 20:22:46 10° NNE
CENTAUR R/B 2.8 20:11:44 10° SW 20:17:40 68° NW 20:24:19 10° NNE
AVUM R/B 3.5 20:14:57 10° SW 20:17:50 57° WNW 20:18:40 38° N
Cosmos 2026 Rocket 4.3 20:13:10 10° N 20:18:55 40° E 20:20:31 34° ESE
Helios 1A 3.1 20:17:42 10° S 20:21:54 77° WSW 20:26:07 10° NNW
Cosmos 1634 Rocket 3.9 20:16:18 10° S 20:22:30 73° E 20:28:41 10° N
Cosmos 1842 Rocket 4.0 20:18:23 10° SSW 20:22:38 61° W 20:26:58 10° N
Cosmos 1655 Rocket 4.3 20:18:11 10° N 20:24:00 40° ENE 20:24:52 38° E
Cosmos 1500 Rocket 3.6 20:19:34 10° N 20:24:02 80° W 20:28:29 10° S
Cosmos 1943 Rocket 3.1 20:21:28 10° N 20:25:56 30° NE 20:25:56 30° NE
OAO 3 Rocket 3.7 20:24:13 10° W 20:28:48 48° SSW 20:29:49 41° SSE
Cosmos 839 Rocket 4.1 20:26:55 10° NNW 20:34:13 68° ENE 20:36:21 43° SE
Cosmos 1733 4.2 20:31:17 10° SSW 20:35:01 47° W 20:38:46 10° N
Spot 2 Rocket 4.2 20:30:11 10° S 20:35:04 51° W 20:39:59 10° NNW
Cosmos 1943 4.0 20:31:29 10° SW 20:36:57 51° WNW 20:42:26 10° N
Cosmos 2369 Rocket 2.1 20:32:42 10° NNW 20:38:24 89° WSW 20:40:36 39° SSE
Cosmos 2195 Rocket 4.4 20:35:08 10° N 20:41:29 74° E 20:44:27 34° SSE
Cosmos 1674 4.3 20:40:20 10° NNW 20:43:54 35° W 20:47:01 13° SSW
Cosmos 2263 4.1 20:47:06 10° NNW 20:52:54 86° ENE 20:53:27 74° SE
SL-24 R/B - RUBIN 2 4.3 20:54:09 10° NNW 21:00:46 74° ENE 21:00:46 74° ENE
USA 215 3.8 21:00:26 16° NNE 21:05:33 55° NW 21:11:52 10° WSW
Resurs 01 Rocket 4.1 21:02:49 10° SW 21:06:09 21° W 21:09:31 10° NW
ALOS 3.9 21:15:36 26° SW 21:17:01 31° W 21:21:08 10° NW
Cosmos 1943 Rocket 4.3 22:05:07 10° NW 22:07:28 22° WNW 22:07:28 22° WNW
